Weather History for Iliamna, AK

Change the Weather History Date:

Thursday, May 16, 2013

  Actual Average Record
Temperature  
Mean Temperature 41 °F -  
Max Temperature 45 °F 50 °F 80 °F (2014)
Min Temperature 36 °F 35 °F 26 °F (1966)
Degree Days  
Heating Degree Days 24    
Moisture  
Dew Point 35 °F    
Average Humidity 79    
Maximum Humidity 97    
Minimum Humidity 64    
Precipitation  
Precipitation 0.08 in - - ()
Sea Level Pressure  
Sea Level Pressure 29.55 in    
Wind  
Wind Speed 5 mph (East)    
Max Wind Speed 10 mph    
Max Gust Speed -    
Visibility 10 miles    
Events Rain    
Averages and records for this station are not official NWS values.
T = Trace of Precipitation, MM = Missing Value Source: NWS Daily Summary

Daily Weather History Graph

Daily Weather History Graph

Search for Another Location

Airport:

Trip Planner

Search our weather history database for the weather conditions in past years. The results will help you decide how hot, cold, wet, or windy it might be!

Date:

Astronomy

May. 16, 2013 Rise Set
Actual Time 5:40 AM AKDT 10:53 PM AKDT
Civil Twilight 4:36 AM AKDT 11:57 PM AKDT
Nautical Twilight 2:48 AM AKDT 1:43 AM AKDT
Astronomical Twilight Sun does not rise Sun does not rise
Moon 11:58 AM AKDT (5/16) 2:48 AM AKDT (5/16)
Length of Visible Light 19h 20m
Length of Day
17h 13m
Waxing Crescent, 37% of the Moon is Illuminated
May 16
Waxing Crescent
May 17
First Quarter
May 24
Full
May 31
Last Quarter
Jun 8
New

Hourly Weather History & Observations

Time (AKDT) Temp. Windchill Dew Point Humidity Pressure Visibility Wind Dir Wind Speed Gust Speed Precip Events Conditions
12:53 AM 39.0 °F 33.4 °F 33.1 °F 79% 29.66 in 10.0 mi East 8.1 mph - N/A   Overcast
1:53 AM 39.0 °F 35.7 °F 33.1 °F 79% 29.65 in 10.0 mi East 4.6 mph - N/A   Overcast
2:53 AM 37.0 °F 33.3 °F 30.9 °F 79% 29.64 in 10.0 mi NE 4.6 mph - N/A   Overcast
3:53 AM 37.9 °F 35.5 °F 30.0 °F 73% 29.62 in 10.0 mi NE 3.5 mph - N/A   Overcast
4:53 AM 37.9 °F 34.4 °F 30.9 °F 76% 29.61 in 10.0 mi NE 4.6 mph - N/A   Overcast
5:53 AM 37.9 °F 34.4 °F 30.0 °F 73% 29.60 in 10.0 mi NE 4.6 mph - N/A   Overcast
6:53 AM 39.0 °F 34.8 °F 30.9 °F 73% 29.58 in 10.0 mi NNE 5.8 mph - 0.00 in   Overcast
7:53 AM 37.9 °F 35.5 °F 34.0 °F 86% 29.57 in 10.0 mi NE 3.5 mph - 0.00 in   Overcast
8:53 AM 39.9 °F - 33.1 °F 77% 29.57 in 10.0 mi Calm Calm - N/A   Overcast
9:53 AM 41.0 °F 37.1 °F 34.0 °F 76% 29.56 in 10.0 mi North 5.8 mph - 0.00 in Rain Light Rain
10:53 AM 43.0 °F 40.3 °F 34.0 °F 71% 29.55 in 10.0 mi North 4.6 mph - 0.00 in Rain Light Rain
11:24 AM 44.6 °F 41.4 °F 33.8 °F 66% 29.53 in 10.0 mi North 5.8 mph - 0.00 in Rain Light Rain
11:53 AM 43.0 °F - 35.1 °F 74% 29.54 in 10.0 mi Calm Calm - 0.00 in Rain Light Rain
12:53 PM 43.0 °F 38.8 °F 37.9 °F 82% 29.54 in 10.0 mi SSE 6.9 mph - 0.00 in Rain Light Rain
1:06 PM 44.6 °F 39.7 °F 37.4 °F 76% 29.53 in 10.0 mi South 9.2 mph - 0.00 in Rain Light Rain
1:46 PM 44.6 °F 41.4 °F 37.4 °F 76% 29.52 in 10.0 mi SSE 5.8 mph - 0.00 in Rain Light Rain
1:53 PM 43.0 °F 40.3 °F 36.0 °F 76% 29.53 in 10.0 mi ESE 4.6 mph - 0.00 in Rain Light Rain
2:53 PM 43.0 °F 39.5 °F 39.0 °F 86% 29.53 in 10.0 mi East 5.8 mph - 0.01 in   Overcast
3:53 PM 43.0 °F 37.2 °F 37.9 °F 82% 29.52 in 10.0 mi West 10.4 mph - 0.00 in Rain Light Rain
4:53 PM 44.1 °F 41.5 °F 39.0 °F 82% 29.51 in 10.0 mi SSW 4.6 mph - 0.04 in Rain Light Rain
5:53 PM 42.1 °F 39.2 °F 37.9 °F 85% 29.51 in 10.0 mi SSW 4.6 mph - 0.00 in Rain Light Rain
6:53 PM 43.0 °F 40.3 °F 39.0 °F 86% 29.50 in 10.0 mi WSW 4.6 mph - 0.02 in Rain Light Rain
7:34 PM 42.8 °F - 39.2 °F 87% 29.49 in 9.0 mi Calm Calm - 0.03 in Rain Light Rain
7:53 PM 42.1 °F 40.2 °F 39.9 °F 92% 29.49 in 10.0 mi SSE 3.5 mph - 0.03 in   Overcast
8:53 PM 43.0 °F 40.3 °F 39.0 °F 86% 29.49 in 10.0 mi SW 4.6 mph - 0.00 in   Overcast
9:53 PM 42.1 °F - 37.9 °F 85% 29.49 in 10.0 mi Calm Calm - N/A   Overcast
10:53 PM 39.9 °F - 37.0 °F 89% 29.49 in 10.0 mi Calm Calm - N/A   Scattered Clouds
11:53 PM 36.0 °F - 35.1 °F 97% 29.49 in 10.0 mi Calm Calm - N/A   Clear